Погода в Хило

США     19°42′26″N   155°04′11″W
темп.,
°C
ветер,
м/с
пор.,
м/с
влажн.,
%
обл.,
%
осадки,
мм/ч
давл.,
гПа
погр.,
м
30 июля, пт
пт3023:00+25юв1271100 0.3 1018259
02:00+25вюв2273100 0.6 1017340
05:00+25вюв237383 0.3 1017320
08:00+25вюв3471100 0.5 1018485
11:00+25в547328 0.1 1018701
14:00+25в547476 0.1 1017651
17:00+25в447356 0.2 1016809
20:00+25в447664 0.6 1018701
31 июля, сб
сб3123:00+25всв127698 0.4 1019383
02:00+25в557975 1.4 1017732
05:00+24в557413 0.4 1018635
08:00+25в446844 0.7 1019743
11:00+25в346770 0.1 1019564
14:00+25всв556874 0.3 1018728
17:00+26в44662 0.2 1018708
20:00+25всв457325 0.6 1019812
1 августа, вс
вс123:00+25всв457596 0.6 1020765
02:00+24св44756 1.0 1019527
05:00+24ссв347092 0.4 1019521
08:00+25ссв457176 0.9 1020698
11:00+25св34620 0.4 10201059
14:00+25всв44706 0.6 1019739
17:00+25всв44672 0.1 1019968
20:00+25св567394 0.9 1020957
2 августа, пн
пн223:00+25всв447319 0.8 1021606
02:00+24всв447561 2.1 1019662
05:00+24всв457533 1.4 1019722
08:00+24всв447266 2.6 1021841
11:00+25св347361 0.8 1020716
14:00+25св446916 1.4 1019959
17:00+25св447324 0.2 1018816
20:00+24св567656 1.8 1019796
3 августа, вт
вт323:00+25св557182 1.4 10201002
02:00+24св236813 1.7 1019826
05:00+24с236971 0.1 1018895
08:00+24ссз22661 0.2 1019823
11:00+24св33670 0.0 1019702
14:00+24всв33710 0.0 1017566
17:00+25всв33671 0.0 1017870
20:00+25св226818 0.1 1018812